User: anonymous   Login
Location: Podia
(1.5569°N, 32.3469°E)
Time: 12:36:46
(UTC+00:00)
Language:

Cosmos 1464 Rocket - Orbit

View from above orbital plane
View from above orbital plane
View from above satellite
View from above satellite

Ground track
Ground track

The orbit data is extracted from the following two-line orbital elements,

1 14085U 83048B   20218.54325065 +.00000041 +00000-0 +26310-4 0  9995
2 14085 082.9461 319.6220 0034412 140.7720 219.5941 13.76301536867959
Epoch (UTC): 05 August 2020 13:02:16
Eccentricity: 0.0034412
inclination: 82.9461°
perigee height: 952 km
apogee height: 1002 km
right ascension of ascending node: 319.6220°
argument of perigee: 140.7720°
revolutions per day: 13.76301536
mean anomaly at epoch: 219.5941°
orbit number at epoch: 86795

The dashed part of the orbit path shows where the satellite is in the earth's shadow,  

DLR